Weather History for K12N - January, 2013

Change the Weather History Date:

Wednesday, January 30, 2013

  Actual Average (KFWN) Record (KFWN)
Temperature  
Mean Temperature 50 °F -  
Max Temperature 62 °F 34 °F 62 °F (2013)
Min Temperature 39 °F 12 °F -12 °F (1963)
Degree Days  
Heating Degree Days 14    
Moisture  
Dew Point 48 °F    
Average Humidity 94    
Maximum Humidity 100    
Minimum Humidity 83    
Precipitation  
Precipitation 0.59 in - - ()
Sea Level Pressure  
Sea Level Pressure 29.71 in    
Wind  
Wind Speed 2 mph (SSW)    
Max Wind Speed 10 mph    
Max Gust Speed 23 mph    
Averages and records for this station are not official NWS values.
T = Trace of Precipitation, MM = Missing Value Source: NWS Daily Summary

Daily Weather History Graph

Daily Weather History Graph

Search for Another Location

Airport or City:

Trip Planner

Search our weather history database for the weather conditions in past years. The results will help you decide how hot, cold, wet, or windy it might be!

Date:

Astronomy

Jan. 30, 2013 Rise Set
Actual Time 7:11 AM EST 5:13 PM EST
Civil Twilight 6:42 AM EST 5:43 PM EST
Nautical Twilight 6:09 AM EST 6:16 PM EST
Astronomical Twilight 5:36 AM EST 6:48 PM EST
Moon 9:12 PM EST (1/30) 8:35 AM EST (1/30)
Length of Visible Light 11h 01m
Length of Day
10h 02m
Waning Gibbous, 88% of the Moon is Illuminated
Jan 30
Waning Gibbous
Feb 3
Last Quarter
Feb 10
New
Feb 17
First Quarter
Feb 25
Full

Hourly Weather History & Observations

Time (EST) Temp. Windchill Dew Point Humidity Pressure Visibility Wind Dir Wind Speed Gust Speed Precip Events Conditions
12:54 AM 39.0 °F - 39.0 °F 100% 30.02 in - Calm Calm - N/A   Unknown
1:54 AM 43.0 °F 40.3 °F 42.1 °F 97% 30.00 in - Variable 4.6 mph - N/A   Unknown
2:54 AM 41.0 °F - 39.9 °F 96% 29.98 in - Calm Calm - N/A   Unknown
3:54 AM 39.9 °F - 39.0 °F 97% 29.94 in - Calm Calm - N/A   Unknown
4:54 AM 41.0 °F - 39.9 °F 96% 29.92 in - Calm Calm - N/A   Unknown
5:54 AM 39.9 °F - 39.0 °F 97% 29.91 in - Calm Calm - N/A   Unknown
6:54 AM 41.0 °F - 41.0 °F 100% 29.89 in - Calm Calm - 0.02 in   Unknown
7:54 AM 45.0 °F - 44.1 °F 97% 29.86 in - Calm Calm - 0.02 in   Unknown
8:54 AM 42.1 °F - 42.1 °F 100% 29.84 in - Calm Calm - 0.01 in   Unknown
9:54 AM 50.0 °F - 48.9 °F 96% 29.80 in - SSW 5.8 mph - 0.02 in   Unknown
10:54 AM 51.1 °F - 48.9 °F 92% 29.77 in - South 5.8 mph - N/A   Unknown
11:54 AM 55.9 °F - 53.1 °F 90% 29.70 in - South 9.2 mph 17.3 mph 0.03 in   Unknown
12:54 PM 55.9 °F - 53.1 °F 90% 29.67 in - South 10.4 mph - 0.02 in   Unknown
1:54 PM 57.9 °F - 54.0 °F 87% 29.61 in - South 10.4 mph 21.9 mph 0.03 in   Unknown
2:54 PM 60.1 °F - 55.0 °F 83% 29.59 in - SSW 9.2 mph - N/A   Unknown
3:54 PM 62.1 °F - 57.0 °F 84% 29.57 in - South 10.4 mph 19.6 mph N/A   Unknown
4:54 PM 61.0 °F - 57.0 °F 87% 29.58 in - SW 9.2 mph 23.0 mph 0.06 in   Unknown
5:54 PM 57.0 °F - 55.0 °F 93% 29.59 in - Calm Calm - 0.01 in   Unknown
6:54 PM 52.0 °F - 52.0 °F 100% 29.56 in - Calm Calm - 0.03 in   Unknown
7:00 PM - - - N/A% - - North - - N/A   Unknown
7:54 PM 55.0 °F - 54.0 °F 96% 29.55 in - Calm Calm - 0.03 in   Unknown
8:54 PM 50.0 °F - 48.9 °F 96% 29.51 in - Calm Calm - 0.05 in   Unknown
9:54 PM 50.0 °F - 48.9 °F 96% 29.45 in - Calm Calm - 0.02 in   Unknown
10:54 PM 51.1 °F - 50.0 °F 96% 29.41 in - Calm Calm - 0.20 in   Unknown
11:54 PM 46.9 °F - 46.0 °F 97% 29.32 in - Calm Calm - 0.04 in   Unknown